| time (UTC) | temp C | wind direction | speed KPH | gust KPH | rain 1hr cm | rain 24hr cm | rain mn cm | humidity % | barometer mb |
| 20260509173049 | 29 | 321 | 1.6 | 3.2 | 0.00 | 0.00 | 0.00 | 52 | 1009.0 |
| 20260509171538 | 28 | 288 | 1.6 | 4.8 | 0.00 | 0.00 | 0.00 | 53 | 1009.2 |
| 20260509170035 | 28 | 234 | 0.0 | 3.2 | 0.00 | 0.00 | 0.00 | 54 | 1009.3 |
| 20260509164532 | 28 | 288 | 0.0 | 3.2 | 0.00 | 0.00 | 0.00 | 57 | 1009.4 |
| 20260509163037 | 27 | 60 | 0.0 | 3.2 | 0.00 | 0.00 | 0.00 | 59 | 1009.4 |
| 20260509161523 | 27 | 314 | 0.0 | 3.2 | 0.00 | 0.00 | 0.00 | 60 | 1009.4 |
| 20260509160022 | 27 | 325 | 1.6 | 3.2 | 0.00 | 0.00 | 0.00 | 62 | 1009.4 |
| 20260509154515 | 26 | 304 | 0.0 | 3.2 | 0.00 | 0.00 | 0.00 | 67 | 1009.3 |
| 20260509153015 | 26 | 302 | 0.0 | 4.8 | 0.00 | 0.00 | 0.00 | 66 | 1009.3 |
| 20260509151509 | 26 | 321 | 0.0 | 3.2 | 0.00 | 0.00 | 0.00 | 67 | 1009.3 |
| 20260509150006 | 25 | 339 | 0.0 | 3.2 | 0.00 | 0.00 | 0.00 | 67 | 1009.4 |
| 20260509144503 | 25 | 325 | 0.0 | 3.2 | 0.00 | 0.00 | 0.00 | 71 | 1009.6 |
| 20260509143100 | 23 | 347 | 0.0 | 0.0 | 0.00 | 0.00 | 0.00 | 76 | 1009.6 |
| 20260509141555 | 23 | 143 | 0.0 | 6.4 | 0.00 | 0.00 | 0.00 | 79 | 1009.6 |
| 20260509140051 | 22 | 259 | 0.0 | 4.8 | 0.00 | 0.00 | 0.00 | 82 | 1009.5 |
| 20260509134546 | 22 | 320 | 0.0 | 0.0 | 0.00 | 0.00 | 0.00 | 84 | 1009.3 |
| 20260509133044 | 21 | 329 | 0.0 | 0.0 | 0.00 | 0.00 | 0.00 | 85 | 1009.2 |
| 20260509131543 | 21 | 330 | 0.0 | 0.0 | 0.00 | 0.00 | 0.00 | 85 | 1009.2 |
| 20260509130046 | 21 | 344 | 0.0 | 0.0 | 0.00 | 0.00 | 0.00 | 86 | 1009.1 |
| 20260509124548 | 20 | 323 | 0.0 | 0.0 | 0.00 | 0.00 | 0.00 | 86 | 1009.1 |
| 20260509123039 | 20 | 307 | 0.0 | 3.2 | 0.00 | 0.00 | 0.00 | 87 | 1009.0 |
| 20260509121535 | 20 | 271 | 0.0 | 3.2 | 0.00 | 0.00 | 0.00 | 87 | 1008.9 |
| 20260509120034 | 20 | 266 | 0.0 | 0.0 | 0.00 | 0.00 | 0.00 | 87 | 1008.9 |
| 20260509114531 | 20 | 266 | 0.0 | 1.6 | 0.00 | 0.00 | 0.00 | 86 | 1008.8 |
| 20260509113030 | 21 | 266 | 0.0 | 1.6 | 0.00 | 0.00 | 0.00 | 86 | 1008.6 |
| 20260509111528 | 21 | 236 | 0.0 | 0.0 | 0.00 | 0.00 | 0.00 | 86 | 1008.3 |
| 20260509110028 | 20 | 236 | 0.0 | 1.6 | 0.00 | 0.00 | 0.00 | 86 | 1008.2 |
| 20260509104527 | 21 | 243 | 0.0 | 4.8 | 0.00 | 0.00 | 0.00 | 86 | 1008.2 |
| 20260509103026 | 21 | 241 | 0.0 | 3.2 | 0.00 | 0.00 | 0.00 | 87 | 1008.1 |
| 20260509101533 | 21 | 255 | 0.0 | 1.6 | 0.00 | 0.00 | 0.00 | 87 | 1008.1 |
| 20260509100026 | 21 | 261 | 0.0 | 3.2 | 0.00 | 0.00 | 0.00 | 87 | 1008.2 |
| 20260509094523 | 21 | 355 | 0.0 | 9.7 | 0.00 | 0.00 | 0.00 | 87 | 1007.0 |
| 20260509093024 | 21 | 155 | 3.2 | 16.1 | 0.00 | 0.00 | 0.00 | 87 | 1005.7 |
| 20260509091522 | 21 | 199 | 4.8 | 17.7 | 0.00 | 0.00 | 0.00 | 87 | 1005.6 |
| 20260509090034 | 21 | 119 | 3.2 | 12.9 | 0.00 | 0.00 | 0.00 | 87 | 1005.9 |
| 20260509084519 | 21 | 199 | 1.6 | 20.9 | 0.00 | 0.00 | 0.00 | 87 | 1005.8 |
| 20260509083030 | 21 | 155 | 6.4 | 19.3 | 0.00 | 0.00 | 0.00 | 87 | 1006.1 |
| 20260509081512 | 20 | 167 | 4.8 | 16.1 | 0.00 | 0.00 | 0.00 | 88 | 1007.0 |
| 20260509080009 | 20 | 161 | 0.0 | 9.7 | 0.00 | 0.00 | 0.00 | 87 | 1008.0 |
| 20260509074506 | 21 | 217 | 0.0 | 4.8 | 0.00 | 0.00 | 0.00 | 87 | 1008.7 |
| 20260509073004 | 21 | 224 | 0.0 | 1.6 | 0.00 | 0.00 | 0.00 | 87 | 1009.3 |
| 20260509071503 | 21 | 246 | 0.0 | 8.0 | 0.00 | 0.00 | 0.00 | 87 | 1009.8 |
| 20260509070003 | 21 | 261 | 0.0 | 6.4 | 0.00 | 0.00 | 0.00 | 87 | 1010.4 |
| 20260509064502 | 20 | 260 | 1.6 | 3.2 | 0.00 | 0.00 | 0.00 | 87 | 1010.0 |
| 20260509063000 | 21 | 153 | 0.0 | 1.6 | 0.00 | 0.00 | 0.00 | 87 | 1009.8 |
| 20260509061603 | 21 | 153 | 0.0 | 0.0 | 0.00 | 0.00 | 0.00 | 87 | 1010.0 |
| 20260509060110 | 21 | 153 | 0.0 | 0.0 | 0.00 | 0.00 | 0.00 | 87 | 1010.1 |
| 20260509054606 | 21 | 153 | 0.0 | 0.0 | 0.00 | 0.00 | 0.00 | 87 | 1010.2 |
| 20260509053128 | 20 | 153 | 0.0 | 1.6 | 0.00 | 0.00 | 0.00 | 87 | 1010.0 |
| 20260509051555 | 20 | 153 | 0.0 | 0.0 | 0.00 | 0.00 | 0.00 | 87 | 1009.1 |
| 20260509050051 | 21 | 153 | 0.0 | 0.0 | 0.00 | 0.00 | 0.00 | 87 | 1009.1 |
| 20260509044623 | 21 | 147 | 0.0 | 1.6 | 0.00 | 0.00 | 0.00 | 86 | 1009.0 |
| 20260509043122 | 21 | 165 | 0.0 | 3.2 | 0.00 | 0.00 | 0.00 | 86 | 1009.2 |
| 20260509041549 | 21 | 127 | 0.0 | 0.0 | 0.00 | 0.00 | 0.00 | 86 | 1009.5 |
| 20260509040048 | 21 | 22 | 0.0 | 0.0 | 0.00 | 0.00 | 0.00 | 85 | 1009.6 |
| 20260509034549 | 21 | 22 | 0.0 | 4.8 | 0.00 | 0.00 | 0.00 | 85 | 1009.2 |
| 20260509033047 | 22 | 148 | 0.0 | 4.8 | 0.00 | 0.00 | 0.00 | 84 | 1008.8 |
| 20260509031556 | 22 | 140 | 0.0 | 4.8 | 0.00 | 0.00 | 0.00 | 84 | 1008.4 |
| 20260509030104 | 22 | 149 | 0.0 | 4.8 | 0.00 | 0.00 | 0.00 | 83 | 1008.3 |
| 20260509024545 | 22 | 137 | 0.0 | 4.8 | 0.00 | 0.00 | 0.00 | 82 | 1008.0 |
| 20260509023044 | 22 | 130 | 3.2 | 8.0 | 0.00 | 0.00 | 0.00 | 82 | 1007.7 |
| 20260509021544 | 22 | 148 | 0.0 | 3.2 | 0.00 | 0.00 | 0.00 | 82 | 1007.8 |
| 20260509020043 | 22 | 136 | 0.0 | 0.0 | 0.00 | 0.00 | 0.00 | 82 | 1007.9 |
| 20260509014542 | 22 | 123 | 0.0 | 0.0 | 0.00 | 0.00 | 0.00 | 82 | 1007.9 |
| 20260509013043 | 22 | 148 | 0.0 | 1.6 | 0.00 | 0.00 | 0.00 | 82 | 1007.9 |
| 20260509011541 | 22 | 174 | 0.0 | 4.8 | 0.00 | 0.00 | 0.00 | 81 | 1007.7 |
| 20260509010041 | 22 | 144 | 0.0 | 4.8 | 0.00 | 0.00 | 0.00 | 82 | 1007.5 |
| 20260509004552 | 22 | 154 | 0.0 | 4.8 | 0.00 | 0.00 | 0.00 | 81 | 1007.2 |
| 20260509003050 | 22 | 173 | 0.0 | 3.2 | 0.00 | 0.00 | 0.00 | 80 | 1007.0 |
| 20260509001538 | 22 | 129 | 0.0 | 3.2 | 0.00 | 0.00 | 0.00 | 80 | 1007.3 |
| 20260509000036 | 22 | 163 | 0.0 | 6.4 | 0.00 | 0.00 | 0.00 | 79 | 1007.3 |
| 20260508234534 | 22 | 142 | 0.0 | 3.2 | 0.00 | 0.00 | 0.00 | 79 | 1007.6 |
| 20260508233040 | 22 | 124 | 0.0 | 4.8 | 0.00 | 0.00 | 0.00 | 79 | 1007.6 |
| 20260508231534 | 22 | 222 | 1.6 | 8.0 | 0.00 | 0.00 | 0.00 | 78 | 1007.6 |
| 20260508230033 | 22 | 165 | 0.0 | 9.7 | 0.00 | 0.00 | 0.00 | 78 | 1007.5 |
| 20260508224540 | 22 | 182 | 3.2 | 14.5 | 0.00 | 0.00 | 0.00 | 77 | 1007.5 |
| 20260508223045 | 22 | 125 | 1.6 | 11.3 | 0.00 | 0.00 | 0.00 | 76 | 1007.5 |
| 20260508221530 | 22 | 96 | 3.2 | 11.3 | 0.00 | 0.00 | 0.00 | 76 | 1007.7 |
| 20260508220029 | 22 | 146 | 0.0 | 8.0 | 0.00 | 0.00 | 0.00 | 77 | 1007.8 |
| 20260508214529 | 22 | 115 | 3.2 | 11.3 | 0.00 | 0.00 | 0.00 | 75 | 1008.2 |
| 20260508213028 | 21 | 119 | 1.6 | 12.9 | 0.00 | 0.00 | 0.00 | 77 | 1008.4 |
| 20260508211527 | 22 | 184 | 4.8 | 9.7 | 0.00 | 0.00 | 0.00 | 74 | 1008.6 |
| 20260508210030 | 21 | 109 | 0.0 | 8.0 | 0.00 | 0.00 | 0.00 | 76 | 1008.7 |
| 20260508204529 | 20 | 93 | 0.0 | 4.8 | 0.00 | 0.00 | 0.00 | 82 | 1008.7 |
| 20260508203025 | 20 | 69 | 0.0 | 4.8 | 0.00 | 0.00 | 0.00 | 80 | 1008.9 |
| 20260508201522 | 20 | 35 | 0.0 | 4.8 | 0.00 | 0.00 | 0.00 | 76 | 1009.4 |
| 20260508200025 | 21 | 143 | 0.0 | 12.9 | 0.00 | 0.00 | 0.00 | 71 | 1010.4 |
| 20260508194534 | 22 | 196 | 1.6 | 9.7 | 0.00 | 0.00 | 0.00 | 71 | 1010.3 |
| 20260508193021 | 22 | 207 | 1.6 | 11.3 | 0.00 | 0.00 | 0.00 | 70 | 1010.0 |
| 20260508191520 | 22 | 193 | 0.0 | 14.5 | 0.00 | 0.00 | 0.00 | 70 | 1010.2 |
| 20260508190020 | 22 | 206 | 1.6 | 8.0 | 0.00 | 0.00 | 0.00 | 69 | 1010.4 |
| 20260508184521 | 22 | 140 | 3.2 | 8.0 | 0.00 | 0.00 | 0.00 | 69 | 1010.6 |
| 20260508183025 | 22 | 181 | 1.6 | 9.7 | 0.00 | 0.00 | 0.00 | 69 | 1010.7 |
| 20260508181517 | 23 | 34 | 1.6 | 12.9 | 0.00 | 0.00 | 0.00 | 68 | 1010.9 |
| 20260508180016 | 22 | 67 | 1.6 | 8.0 | 0.00 | 0.00 | 0.00 | 68 | 1010.9 |
| 20260508174508 | 22 | 112 | 0.0 | 11.3 | 0.00 | 0.00 | 0.00 | 71 | 1011.3 |